Hourly Weather Roundup
Issued by NWS Central Illinois

Home | Current Version | Previous Version | Text Only | Print | Product List | Glossary On
Versions: 1 2 3 4 5 6 7 8 9 10 11 12 13 14 15 16 17 18 19 20 21 22 23 24 25 26 27 28 29 30 31 32 33 34 35 36 37 38 39 40 41 42 43 44 45 46 47 48 49 50
000
NZUS43 KILX 181610
HWRILX

Area Weather Roundup
National Weather Service Lincoln IL
1000 AM CST MON DEC 18 2017

NOTE:  "FAIR" indicates few or no clouds below 12,000 feet, with
       no sigificant weather and/or obstructions to visibility.


CITY           SKY/WX    TMP DP  RH WIND       PRES   REMARKS
Bloomington    CLOUDY    44  41  89 SW16      30.01R
Champaign      CLOUDY    46  41  82 SW16      30.04S
Danville       CLOUDY    44  42  91 SW12      30.00F
Decatur        CLOUDY    46  40  79 SW15      30.05R
Effingham      CLOUDY    46  46 100 S9        30.10F
Flora          DRIZZLE   47  46  95 SW6       30.11S
Galesburg      CLOUDY    42  42 100 W8        30.00S FOG
Jacksonville   CLOUDY    45  41  85 SW12      30.05R
Lacon          CLOUDY    44  43  96 SW8G16    29.98R FOG
Lawrenceville  CLOUDY    46  44  93 SW9       30.12S FOG
Litchfield     CLOUDY    46  40  80 W16       30.08R
$$


CITY           SKY/WX    TMP DP  RH WIND       PRES   REMARKS
Lincoln        CLOUDY    47  43  87 SW7G16    30.03R
Macomb         CLOUDY    46  42  88 SW14      30.03R
Mattoon        CLOUDY    45  43  93 SW7       30.06S
Mt Carmel AP   CLOUDY    46  44  96 SW10      30.12R FOG
Olney-Noble AP DRIZZLE   45  43  93 SW5       30.12R
Paris AP       CLOUDY    45  43  93 SW13      30.07S
Peoria         CLOUDY    45  42  89 SW15      30.00R
Pontiac        CLOUDY    46  45  98 SW14G21   29.99R
Rantoul        CLOUDY    47  44  90 SW13G20   30.01S
Robinson       CLOUDY    45  45 100 SW8       30.11F FOG
Springfield    CLOUDY    47  42  83 SW12      30.05R
Taylorville    CLOUDY    46  40  80 SW13      30.07R
$$

...REGIONAL REPORTS...


CITY           SKY/WX    TMP DP  RH WIND       PRES   REMARKS
Chicago O`Hare DRIZZLE   42  39  89 W13       29.92S
Kankakee       CLOUDY    45  42  91 SW14G20   29.99R
Moline         SUNNY     39  34  82 W14       29.98R WCI  31
Mount Sterling CLOUDY    44  41  88 SW9       30.03R
Mount Vernon   CLOUDY    46  45  96 SW9       30.13R
Pittsfield     CLOUDY    46  42  85 SW13      30.06R
Quincy         CLOUDY    46  41  82 SW13      30.04R
Rockford       PTSUNNY   36  32  85 W8        29.95S FOG     WCI  30
$$


CITY           SKY/WX    TMP DP  RH WIND       PRES   REMARKS
Burlington     SUNNY     44  37  76 W14       30.00R
Cedar Rapids   CLOUDY    32  29  88 SW9       29.95S FOG     WCI  24
Des Moines     MOSUNNY   34  33  96 S12       29.95S FOG     WCI  25
Kirksville     MOSUNNY   44  39  82 SW8       30.04R
Ottumwa        MOSUNNY   37  34  89 SW9       29.99R FOG     WCI  30
St Louis       CLOUDY    48  42  80 SW10G21   30.10R
$$


CITY           SKY/WX    TMP DP  RH WIND       PRES   REMARKS
Terre Haute    CLOUDY    46  42  86 SW12      30.07F
Evansville     LGT RAIN  45  45 100 SW9       30.15R
Indianapolis   CLOUDY    45  42  89 SW13      30.06F
Lafayette      CLOUDY    44  43  96 SW12      30.02S
Madison        CLOUDY    33  30  88 W8        29.90R FOG     WCI  26
Milwaukee      CLOUDY    37  36  96 SW12G20   29.89R FOG     WCI  29
$$





USA.gov is the U.S. government's official web portal to all federal, state and local government web resources and services.